ENT7190 DTTJ-EPKT

Flight info

Callsign ENT7190
Flight time N/A
Altitude 38000
Route LILNA1A LILNA J735 RELBA UM735 BABLO DCT TIXIR DCT TORPO DCT INSAX DCT LEDVA DCT UPLAV DCT BAVOK
Aircraft B738/M-SDFGHIJ1RWXY/LB1

Departure

Time 2026-05-06 13:40
Airport Djerba Zarzis International Airport (DTTJ)

Arrival

Time N/A
Airport Katowice Wojciech Korfanty International Airport (EPKT)
Time Latitude Longitude Altitude Speed Heading
2026-05-06 13:23 33.87283 10.77427 26 ft 0 kts 134°
2026-05-06 13:32 33.87287 10.77422 26 ft 2 kts 133°
2026-05-06 13:32 33.87299 10.77407 28 ft 2 kts 134°
2026-05-06 13:32 33.87310 10.77393 31 ft 2 kts 133°
2026-05-06 13:33 33.87322 10.77378 30 ft 2 kts 133°
2026-05-06 13:33 33.87333 10.77364 32 ft 2 kts 133°
2026-05-06 13:33 33.87344 10.77349 32 ft 2 kts 132°
2026-05-06 13:33 33.87355 10.77334 29 ft 2 kts 130°
2026-05-06 13:34 33.87366 10.77319 29 ft 2 kts 125°
2026-05-06 13:34 33.87373 10.77302 29 ft 2 kts 95°
2026-05-06 13:34 33.87374 10.77295 30 ft 0 kts 82°
2026-05-06 13:34 33.87374 10.77296 30 ft 0 kts 82°
2026-05-06 13:35 33.87374 10.77299 30 ft 2 kts 83°
2026-05-06 13:35 33.87378 10.77369 28 ft 14 kts 88°
2026-05-06 13:35 33.87382 10.77518 26 ft 19 kts 88°
2026-05-06 13:36 33.87387 10.77674 25 ft 18 kts 77°
2026-05-06 13:36 33.87497 10.77719 23 ft 19 kts 347°
2026-05-06 13:36 33.87541 10.77586 22 ft 19 kts 268°
2026-05-06 13:36 33.87537 10.77432 19 ft 19 kts 269°
2026-05-06 13:37 33.87534 10.77260 19 ft 23 kts 268°
2026-05-06 13:37 33.87528 10.77039 19 ft 30 kts 268°
2026-05-06 13:37 33.87520 10.76753 19 ft 37 kts 268°
2026-05-06 13:37 33.87513 10.76455 19 ft 38 kts 268°
2026-05-06 13:38 33.87504 10.76189 22 ft 18 kts 268°
2026-05-06 13:38 33.87479 10.76074 20 ft 5 kts 253°
2026-05-06 13:38 33.87493 10.76053 22 ft 3 kts 350°
2026-05-06 13:38 33.87504 10.76075 22 ft 3 kts 71°
2026-05-06 13:39 33.87505 10.76099 21 ft 0 kts 88°
2026-05-06 13:39 33.87507 10.76154 21 ft 33 kts 88°
2026-05-06 13:39 33.87521 10.76768 19 ft 112 kts 88°
2026-05-06 13:39 33.87548 10.77980 48 ft 174 kts 86°
2026-05-06 13:40 33.87563 10.79540 715 ft 189 kts 89°
2026-05-06 13:40 33.87636 10.81105 1711 ft 188 kts 79°
2026-05-06 13:40 33.88467 10.82349 2572 ft 204 kts 31°
2026-05-06 13:40 33.89864 10.82543 3435 ft 210 kts 345°
2026-05-06 13:41 33.91262 10.81783 3847 ft 234 kts 333°
2026-05-06 13:41 33.92805 10.80943 4210 ft 249 kts 335°
2026-05-06 13:41 33.94423 10.80126 4795 ft 254 kts 343°
2026-05-06 13:41 33.96195 10.79981 5296 ft 266 kts 10°
2026-05-06 13:42 33.98089 10.80498 5543 ft 292 kts 17°
2026-05-06 13:42 34.00095 10.81162 6138 ft 302 kts 17°
2026-05-06 13:42 34.02129 10.81847 6873 ft 306 kts 17°
2026-05-06 13:42 34.04195 10.82534 7590 ft 311 kts 16°
2026-05-06 13:43 34.06300 10.83225 8304 ft 316 kts 15°
2026-05-06 13:43 34.08437 10.83920 9019 ft 321 kts 15°
2026-05-06 13:43 34.10611 10.84620 9719 ft 327 kts 15°
2026-05-06 13:43 34.12851 10.85340 10179 ft 342 kts 14°
2026-05-06 13:44 34.15224 10.86100 10346 ft 366 kts 14°
2026-05-06 13:44 34.17752 10.86910 10623 ft 384 kts 14°
2026-05-06 13:44 34.20356 10.87745 11183 ft 391 kts 14°
2026-05-06 13:44 34.23000 10.88593 11855 ft 394 kts 14°
2026-05-06 13:45 34.25660 10.89447 12553 ft 397 kts 13°
2026-05-06 13:45 34.31075 10.91209 13777 ft 408 kts 13°
2026-05-06 13:45 34.33818 10.92130 14416 ft 410 kts 13°
2026-05-06 13:46 34.36574 10.93062 15063 ft 413 kts 13°
2026-05-06 13:46 34.39350 10.94002 15685 ft 416 kts 13°
2026-05-06 13:46 34.42146 10.94948 16317 ft 419 kts 13°
2026-05-06 13:46 34.44961 10.95899 16935 ft 422 kts 12°
2026-05-06 13:47 34.47801 10.96857 17540 ft 425 kts 12°
2026-05-06 13:47 34.50663 10.97823 18134 ft 429 kts 12°
2026-05-06 13:47 34.53545 10.98796 18691 ft 430 kts 12°
2026-05-06 13:47 34.56427 10.99771 19327 ft 430 kts 11°
2026-05-06 13:48 34.59304 11.00745 19970 ft 429 kts 11°
2026-05-06 13:48 34.62182 11.01720 20562 ft 430 kts 10°
2026-05-06 13:48 34.65066 11.02696 21128 ft 431 kts 10°
2026-05-06 13:48 34.67960 11.03676 21694 ft 432 kts
2026-05-06 13:49 34.70861 11.04660 22249 ft 433 kts
2026-05-06 13:49 34.73733 11.05635 22780 ft 435 kts
2026-05-06 13:49 34.76689 11.06639 23322 ft 436 kts
2026-05-06 13:49 34.79574 11.07620 23743 ft 437 kts
2026-05-06 13:50 34.82552 11.08633 24139 ft 440 kts
2026-05-06 13:50 34.85466 11.09625 24512 ft 442 kts
2026-05-06 13:50 34.88474 11.10648 24908 ft 444 kts
2026-05-06 13:50 34.91475 11.11466 25296 ft 441 kts
2026-05-06 13:51 34.94502 11.12091 25685 ft 441 kts
2026-05-06 13:51 34.97541 11.12653 26066 ft 442 kts
2026-05-06 13:51 35.00555 11.13195 26421 ft 445 kts
2026-05-06 13:51 35.03619 11.13755 26775 ft 447 kts
2026-05-06 13:52 35.06698 11.14332 27121 ft 449 kts
2026-05-06 13:52 35.09794 11.14926 27454 ft 451 kts
2026-05-06 13:52 35.12903 11.15531 27781 ft 454 kts
2026-05-06 13:52 35.16065 11.16151 28120 ft 456 kts
2026-05-06 13:53 35.19208 11.16771 28443 ft 458 kts
2026-05-06 13:53 35.22360 11.17393 28763 ft 460 kts
2026-05-06 13:53 35.25522 11.18018 29071 ft 462 kts
2026-05-06 13:53 35.28701 11.18645 29368 ft 464 kts
2026-05-06 13:54 35.31895 11.19276 29644 ft 466 kts
2026-05-06 13:54 35.35102 11.19909 29908 ft 468 kts
2026-05-06 13:54 35.38328 11.20547 30139 ft 470 kts
2026-05-06 13:54 35.41561 11.21186 30402 ft 471 kts
2026-05-06 13:55 35.44796 11.21828 30744 ft 470 kts
2026-05-06 13:55 35.48014 11.22468 31134 ft 467 kts
2026-05-06 13:55 35.51216 11.23105 31510 ft 465 kts
2026-05-06 13:55 35.54411 11.23739 31828 ft 465 kts
2026-05-06 13:56 35.57600 11.24372 32115 ft 465 kts
2026-05-06 13:56 35.60792 11.25005 32416 ft 464 kts
2026-05-06 13:56 35.63979 11.25639 32742 ft 463 kts
2026-05-06 13:56 35.67157 11.26272 33074 ft 462 kts
2026-05-06 13:57 35.70325 11.26906 33373 ft 462 kts
2026-05-06 13:57 35.73499 11.27550 33657 ft 461 kts
2026-05-06 13:57 35.76656 11.28195 33954 ft 460 kts
2026-05-06 13:57 35.79808 11.28839 34228 ft 459 kts
2026-05-06 13:58 35.82957 11.29476 34441 ft 459 kts
2026-05-06 13:58 35.86107 11.30105 34651 ft 459 kts
2026-05-06 13:58 35.89262 11.30732 34877 ft 458 kts
2026-05-06 13:58 35.92404 11.31358 35123 ft 457 kts
2026-05-06 13:59 35.95584 11.31993 35351 ft 457 kts
2026-05-06 13:59 35.98732 11.32622 35550 ft 457 kts
2026-05-06 13:59 36.01866 11.33250 35758 ft 457 kts
2026-05-06 13:59 36.05002 11.33880 35981 ft 456 kts
2026-05-06 14:00 36.08137 11.34511 36166 ft 457 kts
2026-05-06 14:00 36.11269 11.35143 36352 ft 457 kts
2026-05-06 14:00 36.14410 11.35779 36530 ft 457 kts
2026-05-06 14:00 36.17544 11.36415 36745 ft 456 kts
2026-05-06 14:01 36.20677 11.37051 36937 ft 456 kts
2026-05-06 14:01 36.23810 11.37686 37105 ft 456 kts
2026-05-06 14:01 36.26944 11.38323 37265 ft 456 kts
2026-05-06 14:01 36.30061 11.38958 37481 ft 455 kts
2026-05-06 14:02 36.33185 11.39594 37705 ft 454 kts
2026-05-06 14:02 36.36332 11.40234 37868 ft 454 kts
2026-05-06 14:02 36.42592 11.41506 37889 ft 456 kts
2026-05-06 14:03 36.48841 11.42783 37880 ft 453 kts
2026-05-06 14:03 36.55051 11.44054 37893 ft 451 kts
2026-05-06 14:04 36.60228 11.45114 37892 ft 449 kts
2026-05-06 14:04 36.66426 11.46385 37904 ft 449 kts
2026-05-06 14:05 36.72596 11.47651 37916 ft 449 kts
2026-05-06 14:05 36.78773 11.48922 37910 ft 451 kts
2026-05-06 14:06 36.85012 11.50313 37908 ft 457 kts 10°
2026-05-06 14:06 36.91120 11.52692 37918 ft 462 kts 14°
2026-05-06 14:07 36.97266 11.55316 37930 ft 465 kts 14°
2026-05-06 14:07 37.03459 11.57925 37930 ft 468 kts 14°
2026-05-06 14:08 37.09658 11.60488 37937 ft 471 kts 13°
2026-05-06 14:08 37.15898 11.63050 37940 ft 473 kts 13°
2026-05-06 14:09 37.22178 11.65630 37941 ft 476 kts 13°
2026-05-06 14:09 37.28475 11.68223 37939 ft 477 kts 13°
2026-05-06 14:10 37.34835 11.70849 37930 ft 478 kts 13°
2026-05-06 14:10 37.41148 11.73460 37929 ft 477 kts 13°
2026-05-06 14:11 37.47447 11.76070 37945 ft 476 kts 13°
2026-05-06 14:11 37.53768 11.78694 37932 ft 475 kts 13°
2026-05-06 14:12 37.60043 11.81304 37949 ft 474 kts 13°
2026-05-06 14:12 37.66294 11.83907 37940 ft 472 kts 13°
2026-05-06 14:13 37.72534 11.86510 37951 ft 471 kts 13°
2026-05-06 14:13 37.78745 11.89106 37953 ft 470 kts 13°
2026-05-06 14:14 37.84959 11.91707 37955 ft 470 kts 13°
2026-05-06 14:14 37.91173 11.94313 37953 ft 471 kts 13°
2026-05-06 14:15 37.97394 11.96926 37967 ft 471 kts 12°
2026-05-06 14:15 38.03622 11.99548 37963 ft 472 kts 12°
2026-05-06 14:16 38.09864 12.02179 37967 ft 473 kts 12°
2026-05-06 14:16 38.16115 12.04820 37965 ft 474 kts 13°
2026-05-06 14:17 38.22372 12.07469 37968 ft 474 kts 13°
2026-05-06 14:17 38.28635 12.10124 37969 ft 474 kts 13°
2026-05-06 14:18 38.34897 12.12785 37974 ft 474 kts 12°
2026-05-06 14:18 38.41154 12.15448 37977 ft 474 kts 12°
2026-05-06 14:19 38.47408 12.18114 37975 ft 473 kts 12°
2026-05-06 14:19 38.53649 12.20780 37976 ft 473 kts 12°
2026-05-06 14:20 38.59881 12.23447 37980 ft 472 kts 12°
2026-05-06 14:20 38.66099 12.26112 37984 ft 471 kts 12°
2026-05-06 14:21 38.72311 12.28780 37985 ft 470 kts 12°
2026-05-06 14:21 38.78509 12.31446 37991 ft 470 kts 12°
2026-05-06 14:22 38.84704 12.34116 37991 ft 469 kts 12°
2026-05-06 14:22 38.90894 12.36789 37998 ft 469 kts 12°
2026-05-06 14:23 38.97083 12.39466 37990 ft 469 kts 12°
2026-05-06 14:23 39.03273 12.42149 37991 ft 470 kts 13°
2026-05-06 14:24 39.09471 12.44840 38003 ft 470 kts 13°
2026-05-06 14:24 39.15673 12.47538 38003 ft 471 kts 13°
2026-05-06 14:25 39.21888 12.50246 37998 ft 472 kts 13°
2026-05-06 14:25 39.28078 12.52949 37999 ft 473 kts 13°
2026-05-06 14:26 39.34321 12.55680 38000 ft 474 kts 13°
2026-05-06 14:26 39.40578 12.58422 38000 ft 475 kts 13°
2026-05-06 14:27 39.46849 12.61176 38004 ft 476 kts 13°
2026-05-06 14:27 39.53130 12.63940 38003 ft 477 kts 13°
2026-05-06 14:28 39.59422 12.66714 38006 ft 478 kts 13°
2026-05-06 14:28 39.65723 12.69497 38008 ft 479 kts 13°
2026-05-06 14:29 39.72033 12.72289 38010 ft 479 kts 13°
2026-05-06 14:29 39.78346 12.75088 38006 ft 480 kts 13°
2026-05-06 14:30 39.84705 12.77914 38007 ft 480 kts 13°
2026-05-06 14:30 39.91022 12.80726 38006 ft 479 kts 13°
2026-05-06 14:31 39.97332 12.83540 38009 ft 479 kts 13°
2026-05-06 14:31 40.03635 12.86357 38004 ft 478 kts 13°
2026-05-06 14:32 40.09929 12.89175 38006 ft 478 kts 13°
2026-05-06 14:32 40.16216 12.91996 38006 ft 477 kts 13°
2026-05-06 14:33 40.22494 12.94818 38013 ft 477 kts 13°
2026-05-06 14:33 40.27710 12.97167 38011 ft 477 kts 13°
2026-05-06 14:34 40.33980 12.99995 38009 ft 477 kts 13°
2026-05-06 14:34 40.40253 13.02830 38010 ft 477 kts 13°
2026-05-06 14:35 40.46520 13.05668 38009 ft 477 kts 13°
2026-05-06 14:35 40.52792 13.08514 38010 ft 477 kts 13°
2026-05-06 14:36 40.59062 13.11365 38010 ft 477 kts 13°
2026-05-06 14:36 40.65338 13.14224 38012 ft 477 kts 13°
2026-05-06 14:37 40.71657 13.17109 38011 ft 478 kts 13°
2026-05-06 14:37 40.77937 13.19981 38009 ft 478 kts 13°
2026-05-06 14:38 40.84216 13.22860 38013 ft 478 kts 13°
2026-05-06 14:38 40.90541 13.25765 38007 ft 478 kts 13°
2026-05-06 14:39 40.96819 13.28654 38014 ft 478 kts 13°
2026-05-06 14:39 41.03092 13.31547 38010 ft 477 kts 13°
2026-05-06 14:40 41.09360 13.34444 38014 ft 477 kts 13°
2026-05-06 14:40 41.15621 13.37342 38015 ft 476 kts 13°
2026-05-06 14:41 41.21876 13.40244 38009 ft 476 kts 13°
2026-05-06 14:41 41.28167 13.43169 38020 ft 475 kts 13°
2026-05-06 14:42 41.34404 13.46074 38007 ft 475 kts 13°
2026-05-06 14:42 41.40643 13.48986 38014 ft 475 kts 13°
2026-05-06 14:43 41.46885 13.51906 38009 ft 475 kts 13°
2026-05-06 14:43 41.53120 13.54828 38005 ft 475 kts 13°
2026-05-06 14:44 41.59348 13.57754 38014 ft 474 kts 13°
2026-05-06 14:45 41.68669 13.62142 38010 ft 473 kts 13°
2026-05-06 14:45 41.74924 13.65095 38010 ft 473 kts 13°
2026-05-06 14:46 41.81139 13.68034 37993 ft 474 kts 13°
2026-05-06 14:46 41.87394 13.70999 37981 ft 474 kts 13°
2026-05-06 14:47 41.93624 13.73958 37983 ft 476 kts 13°
2026-05-06 14:47 41.99860 13.76925 37990 ft 476 kts 14°
2026-05-06 14:48 42.06150 13.79926 37975 ft 477 kts 14°
2026-05-06 14:48 42.12429 13.82924 37944 ft 480 kts 14°
2026-05-06 14:49 42.18705 13.85936 37961 ft 480 kts 14°
2026-05-06 14:49 42.25046 13.88980 37932 ft 480 kts 14°
2026-05-06 14:50 42.31407 13.91703 37914 ft 478 kts 11°
2026-05-06 14:50 42.37789 13.94179 37931 ft 476 kts 11°
2026-05-06 14:51 42.44162 13.96667 37918 ft 477 kts 11°
2026-05-06 14:51 42.50523 13.99199 37921 ft 477 kts 11°
2026-05-06 14:52 42.56891 14.01760 37913 ft 477 kts 12°
2026-05-06 14:52 42.63252 14.04325 37918 ft 477 kts 12°
2026-05-06 14:53 42.69608 14.06893 37916 ft 477 kts 12°
2026-05-06 14:53 42.75972 14.09469 37922 ft 477 kts 12°
2026-05-06 14:54 42.82333 14.12048 37922 ft 477 kts 12°
2026-05-06 14:54 42.88691 14.14632 37924 ft 477 kts 12°
2026-05-06 14:55 42.95060 14.17225 37925 ft 478 kts 12°
2026-05-06 14:55 43.01427 14.19824 37928 ft 478 kts 12°
2026-05-06 14:56 43.07807 14.22433 37917 ft 479 kts 12°
2026-05-06 14:56 43.14208 14.25057 37933 ft 482 kts 13°
2026-05-06 14:57 43.20665 14.27707 37938 ft 487 kts 13°
2026-05-06 14:57 43.24131 14.29133 37933 ft 490 kts 13°